Year,Month,Day,Hour,Minute,Value (Times are PST for temperature in C)
2011,05,04,00,00,5.40
2011,05,04,00,01,5.40
2011,05,04,00,02,5.30
2011,05,04,00,03,5.30
2011,05,04,00,04,5.30
2011,05,04,00,05,5.30
2011,05,04,00,06,5.30
2011,05,04,00,07,5.30
2011,05,04,00,08,5.40
2011,05,04,00,09,5.40
2011,05,04,00,10,5.40
2011,05,04,00,11,5.40
2011,05,04,00,12,5.40
2011,05,04,00,13,5.30
2011,05,04,00,14,5.30
2011,05,04,00,15,5.20
2011,05,04,00,16,5.10
2011,05,04,00,17,5.10
2011,05,04,00,18,5.10
2011,05,04,00,19,5.10
2011,05,04,00,20,5.10
2011,05,04,00,21,5.10
2011,05,04,00,22,5.10
2011,05,04,00,23,5.10
2011,05,04,00,24,5.10
2011,05,04,00,25,5.10
2011,05,04,00,26,5.10
2011,05,04,00,27,5.10
2011,05,04,00,28,5.10
2011,05,04,00,29,5.10
2011,05,04,00,30,5.10
2011,05,04,00,31,5.10
2011,05,04,00,32,5.10
2011,05,04,00,33,5.00
2011,05,04,00,34,5.00
2011,05,04,00,35,4.90
2011,05,04,00,36,4.90
2011,05,04,00,37,4.90
2011,05,04,00,38,4.90
2011,05,04,00,39,4.90
2011,05,04,00,40,5.00
2011,05,04,00,41,5.00
2011,05,04,00,42,5.00
2011,05,04,00,43,5.00
2011,05,04,00,44,5.00
2011,05,04,00,45,4.90
2011,05,04,00,46,4.90
2011,05,04,00,47,4.80
2011,05,04,00,48,4.80
2011,05,04,00,49,4.70
2011,05,04,00,50,4.70
2011,05,04,00,51,4.60
2011,05,04,00,52,4.60
2011,05,04,00,53,4.60
2011,05,04,00,54,4.60
2011,05,04,00,55,4.50
2011,05,04,00,56,4.50
2011,05,04,00,57,4.50
2011,05,04,00,58,4.50
2011,05,04,00,59,4.40
2011,05,04,01,00,4.40
2011,05,04,01,01,4.40
2011,05,04,01,02,4.30
2011,05,04,01,03,4.30
2011,05,04,01,04,4.30
2011,05,04,01,05,4.30
2011,05,04,01,06,4.20
2011,05,04,01,07,4.20
2011,05,04,01,08,4.20
2011,05,04,01,09,4.20
2011,05,04,01,10,4.20
2011,05,04,01,11,4.20
2011,05,04,01,12,4.20
2011,05,04,01,13,4.20
2011,05,04,01,14,4.10
2011,05,04,01,15,4.10
2011,05,04,01,16,4.10
2011,05,04,01,17,4.10
2011,05,04,01,18,4.00
2011,05,04,01,19,4.00
2011,05,04,01,20,4.00
2011,05,04,01,21,4.00
2011,05,04,01,22,3.90
2011,05,04,01,23,3.90
2011,05,04,01,24,3.90
2011,05,04,01,25,3.90
2011,05,04,01,26,3.90
2011,05,04,01,27,3.90
2011,05,04,01,28,4.00
2011,05,04,01,29,4.00
2011,05,04,01,30,4.00
2011,05,04,01,31,4.00
2011,05,04,01,32,4.00
2011,05,04,01,33,4.00
2011,05,04,01,34,4.00
2011,05,04,01,35,4.00
2011,05,04,01,36,4.00
2011,05,04,01,37,4.00
2011,05,04,01,38,4.00
2011,05,04,01,39,4.00
2011,05,04,01,40,4.00
2011,05,04,01,41,4.00
2011,05,04,01,42,4.00
2011,05,04,01,43,4.00
2011,05,04,01,44,4.00
2011,05,04,01,45,4.00
2011,05,04,01,46,4.00
2011,05,04,01,47,3.90
2011,05,04,01,48,3.90
2011,05,04,01,49,3.90
2011,05,04,01,50,3.90
2011,05,04,01,51,3.90
2011,05,04,01,52,3.90
2011,05,04,01,53,3.90
2011,05,04,01,54,3.80
2011,05,04,01,55,3.80
2011,05,04,01,56,3.80
2011,05,04,01,57,3.80
2011,05,04,01,58,3.80
2011,05,04,01,59,3.80
2011,05,04,02,00,3.80
2011,05,04,02,01,3.80
2011,05,04,02,02,3.80
2011,05,04,02,03,3.80
2011,05,04,02,04,3.80
2011,05,04,02,05,3.80
2011,05,04,02,06,3.80
2011,05,04,02,07,3.80
2011,05,04,02,08,3.70
2011,05,04,02,09,3.70
2011,05,04,02,10,3.70
2011,05,04,02,11,3.70
2011,05,04,02,12,3.80
2011,05,04,02,13,3.80
2011,05,04,02,14,3.80
2011,05,04,02,15,3.80
2011,05,04,02,16,3.80
2011,05,04,02,17,3.70
2011,05,04,02,18,3.70
2011,05,04,02,19,3.70
2011,05,04,02,20,3.80
2011,05,04,02,21,3.80
2011,05,04,02,22,3.80
2011,05,04,02,23,3.80
2011,05,04,02,24,3.80
2011,05,04,02,25,3.90
2011,05,04,02,26,3.90
2011,05,04,02,27,3.90
2011,05,04,02,28,3.80
2011,05,04,02,29,3.80
2011,05,04,02,30,3.80
2011,05,04,02,31,3.70
2011,05,04,02,32,3.60
2011,05,04,02,33,3.60
2011,05,04,02,34,3.50
2011,05,04,02,35,3.50
2011,05,04,02,36,3.40
2011,05,04,02,37,3.40
2011,05,04,02,38,3.30
2011,05,04,02,39,3.30
2011,05,04,02,40,3.30
2011,05,04,02,41,3.30
2011,05,04,02,42,3.30
2011,05,04,02,43,3.30
2011,05,04,02,44,3.30
2011,05,04,02,45,3.30
2011,05,04,02,46,3.30
2011,05,04,02,47,3.20
2011,05,04,02,48,3.20
2011,05,04,02,49,3.20
2011,05,04,02,50,3.20
2011,05,04,02,51,3.20
2011,05,04,02,52,3.20
2011,05,04,02,53,3.20
2011,05,04,02,54,3.20
2011,05,04,02,55,3.20
2011,05,04,02,56,3.30
2011,05,04,02,57,3.30
2011,05,04,02,58,3.30
2011,05,04,02,59,3.30
2011,05,04,03,00,3.30
2011,05,04,03,01,3.30
2011,05,04,03,02,3.30
2011,05,04,03,03,3.30
2011,05,04,03,04,3.30
2011,05,04,03,05,3.30
2011,05,04,03,06,3.30
2011,05,04,03,07,3.30
2011,05,04,03,08,3.30
2011,05,04,03,09,3.30
2011,05,04,03,10,3.30
2011,05,04,03,11,3.30
2011,05,04,03,12,3.30
2011,05,04,03,13,3.30
2011,05,04,03,14,3.30
2011,05,04,03,15,3.30
2011,05,04,03,16,3.30
2011,05,04,03,17,3.30
2011,05,04,03,18,3.30
2011,05,04,03,19,3.30
2011,05,04,03,20,3.20
2011,05,04,03,21,3.20
2011,05,04,03,22,3.20
2011,05,04,03,23,3.20
2011,05,04,03,24,3.20
2011,05,04,03,25,3.20
2011,05,04,03,26,3.20
2011,05,04,03,27,3.20
2011,05,04,03,28,3.10
2011,05,04,03,29,3.10
2011,05,04,03,30,3.10
2011,05,04,03,31,3.10
2011,05,04,03,32,3.10
2011,05,04,03,33,3.10
2011,05,04,03,34,3.10
2011,05,04,03,35,3.10
2011,05,04,03,36,3.10
2011,05,04,03,37,3.00
2011,05,04,03,38,3.00
2011,05,04,03,39,3.00
2011,05,04,03,40,3.00
2011,05,04,03,41,3.00
2011,05,04,03,42,3.00
2011,05,04,03,43,3.00
2011,05,04,03,44,3.00
2011,05,04,03,45,3.00
2011,05,04,03,46,3.00
2011,05,04,03,47,3.00
2011,05,04,03,48,3.00
2011,05,04,03,49,2.90
2011,05,04,03,50,2.90
2011,05,04,03,51,2.90
2011,05,04,03,52,2.90
2011,05,04,03,53,2.90
2011,05,04,03,54,2.90
2011,05,04,03,55,2.90
2011,05,04,03,56,2.90
2011,05,04,03,57,2.90
2011,05,04,03,58,2.80
2011,05,04,03,59,2.80
2011,05,04,04,00,2.80
2011,05,04,04,01,2.80
2011,05,04,04,02,2.80
2011,05,04,04,03,2.80
2011,05,04,04,04,2.80
2011,05,04,04,05,2.80
2011,05,04,04,06,2.80
2011,05,04,04,07,2.80
2011,05,04,04,08,2.80
2011,05,04,04,09,2.80
2011,05,04,04,10,2.80
2011,05,04,04,11,2.80
2011,05,04,04,12,2.80
2011,05,04,04,13,2.80
2011,05,04,04,14,2.80
2011,05,04,04,15,2.80
2011,05,04,04,16,2.80
2011,05,04,04,17,2.80
2011,05,04,04,18,2.80
2011,05,04,04,19,2.80
2011,05,04,04,20,2.80
2011,05,04,04,21,2.80
2011,05,04,04,22,2.80
2011,05,04,04,23,2.80
2011,05,04,04,24,2.80
2011,05,04,04,25,2.80
2011,05,04,04,26,2.80
2011,05,04,04,27,2.80
2011,05,04,04,28,2.80
2011,05,04,04,29,2.80
2011,05,04,04,30,2.80
2011,05,04,04,31,2.80
2011,05,04,04,32,2.80
2011,05,04,04,33,2.70
2011,05,04,04,34,2.70
2011,05,04,04,35,2.60
2011,05,04,04,36,2.60
2011,05,04,04,37,2.60
2011,05,04,04,38,2.50
2011,05,04,04,39,2.50
2011,05,04,04,40,2.50
2011,05,04,04,41,2.40
2011,05,04,04,42,2.40
2011,05,04,04,43,2.40
2011,05,04,04,44,2.40
2011,05,04,04,45,2.40
2011,05,04,04,46,2.30
2011,05,04,04,47,2.30
2011,05,04,04,48,2.30
2011,05,04,04,49,2.40
2011,05,04,04,50,2.40
2011,05,04,04,51,2.40
2011,05,04,04,52,2.40
2011,05,04,04,53,2.40
2011,05,04,04,54,2.40
2011,05,04,04,55,2.40
2011,05,04,04,56,2.40
2011,05,04,04,57,2.40
2011,05,04,04,58,2.40
2011,05,04,04,59,2.40
2011,05,04,05,00,2.40
2011,05,04,05,01,2.30
2011,05,04,05,02,2.30
2011,05,04,05,03,2.30
2011,05,04,05,04,2.30
2011,05,04,05,05,2.30
2011,05,04,05,06,2.30
2011,05,04,05,07,2.30
2011,05,04,05,08,2.30
2011,05,04,05,09,2.30
2011,05,04,05,10,2.30
2011,05,04,05,11,2.30
2011,05,04,05,12,2.30
2011,05,04,05,13,2.30
2011,05,04,05,14,2.30
2011,05,04,05,15,2.30
2011,05,04,05,16,2.30
2011,05,04,05,17,2.30
2011,05,04,05,18,2.30
2011,05,04,05,19,2.30
2011,05,04,05,20,2.30
2011,05,04,05,21,2.30
2011,05,04,05,22,2.20
2011,05,04,05,23,2.20
2011,05,04,05,24,2.20
2011,05,04,05,25,2.20
2011,05,04,05,26,2.20
2011,05,04,05,27,2.20
2011,05,04,05,28,2.20
2011,05,04,05,29,2.10
2011,05,04,05,30,2.10
2011,05,04,05,31,2.10
2011,05,04,05,32,2.10
2011,05,04,05,33,2.10
2011,05,04,05,34,2.10
2011,05,04,05,35,2.10
2011,05,04,05,36,2.10
2011,05,04,05,37,2.10
2011,05,04,05,38,2.10
2011,05,04,05,39,2.10
2011,05,04,05,40,2.00
2011,05,04,05,41,2.10
2011,05,04,05,42,2.10
2011,05,04,05,43,2.10
2011,05,04,05,44,2.10
2011,05,04,05,45,2.10
2011,05,04,05,46,2.10
2011,05,04,05,47,2.10
2011,05,04,05,48,2.10
2011,05,04,05,49,2.10
2011,05,04,05,50,2.10
2011,05,04,05,51,2.10
2011,05,04,05,52,2.10
2011,05,04,05,53,2.10
2011,05,04,05,54,2.00
2011,05,04,05,55,2.00
2011,05,04,05,56,2.00
2011,05,04,05,57,2.00
2011,05,04,05,58,2.00
2011,05,04,05,59,2.00
2011,05,04,06,00,2.00
2011,05,04,06,01,2.00
2011,05,04,06,02,2.00
2011,05,04,06,03,2.00
2011,05,04,06,04,2.00
2011,05,04,06,05,2.00
2011,05,04,06,06,2.00
2011,05,04,06,07,2.00
2011,05,04,06,08,2.00
2011,05,04,06,09,2.00
2011,05,04,06,10,2.00
2011,05,04,06,11,2.00
2011,05,04,06,12,2.10
2011,05,04,06,13,2.10
2011,05,04,06,14,2.10
2011,05,04,06,15,2.10
2011,05,04,06,16,2.10
2011,05,04,06,17,2.10
2011,05,04,06,18,2.10
2011,05,04,06,19,2.10
2011,05,04,06,20,2.10
2011,05,04,06,21,2.00
2011,05,04,06,22,2.00
2011,05,04,06,23,2.00
2011,05,04,06,24,2.00
2011,05,04,06,25,1.90
2011,05,04,06,26,1.90
2011,05,04,06,27,2.00
2011,05,04,06,28,2.00
2011,05,04,06,29,2.00
2011,05,04,06,30,2.10
2011,05,04,06,31,2.10
2011,05,04,06,32,2.10
2011,05,04,06,33,2.20
2011,05,04,06,34,2.20
2011,05,04,06,35,2.30
2011,05,04,06,36,2.30
2011,05,04,06,37,2.40
2011,05,04,06,38,2.40
2011,05,04,06,39,2.40
2011,05,04,06,40,2.50
2011,05,04,06,41,2.50
2011,05,04,06,42,2.60
2011,05,04,06,43,2.60
2011,05,04,06,44,2.60
2011,05,04,06,45,2.60
2011,05,04,06,46,2.60
2011,05,04,06,47,2.60
2011,05,04,06,48,2.70
2011,05,04,06,49,2.70
2011,05,04,06,50,2.70
2011,05,04,06,51,2.70
2011,05,04,06,52,2.70
2011,05,04,06,53,2.70
2011,05,04,06,54,2.70
2011,05,04,06,55,2.70
2011,05,04,06,56,2.80
2011,05,04,06,57,2.80
2011,05,04,06,58,2.90
2011,05,04,06,59,2.90
2011,05,04,07,00,3.00
2011,05,04,07,01,3.10
2011,05,04,07,02,3.10
2011,05,04,07,03,3.20
2011,05,04,07,04,3.20
2011,05,04,07,05,3.30
2011,05,04,07,06,3.30
2011,05,04,07,07,3.40
2011,05,04,07,08,3.40
2011,05,04,07,09,3.40
2011,05,04,07,10,3.40
2011,05,04,07,11,3.50
2011,05,04,07,12,3.50
2011,05,04,07,13,3.50
2011,05,04,07,14,3.50
2011,05,04,07,15,3.50
2011,05,04,07,16,3.60
2011,05,04,07,17,3.60
2011,05,04,07,18,3.60
2011,05,04,07,19,3.70
2011,05,04,07,20,3.70
2011,05,04,07,21,3.70
2011,05,04,07,22,3.80
2011,05,04,07,23,3.90
2011,05,04,07,24,4.00
2011,05,04,07,25,4.20
2011,05,04,07,26,4.30
2011,05,04,07,27,4.40
2011,05,04,07,28,4.60
2011,05,04,07,29,4.70
2011,05,04,07,30,4.80
2011,05,04,07,31,4.90
2011,05,04,07,32,4.90
2011,05,04,07,33,4.90
2011,05,04,07,34,5.00
2011,05,04,07,35,5.00
2011,05,04,07,36,5.10
2011,05,04,07,37,5.10
2011,05,04,07,38,5.10
2011,05,04,07,39,5.20
2011,05,04,07,40,5.30
2011,05,04,07,41,5.30
2011,05,04,07,42,5.30
2011,05,04,07,43,5.30
2011,05,04,07,44,5.40
2011,05,04,07,45,5.40
2011,05,04,07,46,5.50
2011,05,04,07,47,5.50
2011,05,04,07,48,5.60
2011,05,04,07,49,5.60
2011,05,04,07,50,5.60
2011,05,04,07,51,5.70
2011,05,04,07,52,5.70
2011,05,04,07,53,5.70
2011,05,04,07,54,5.80
2011,05,04,07,55,5.90
2011,05,04,07,56,6.00
2011,05,04,07,57,6.10
2011,05,04,07,58,6.10
2011,05,04,07,59,6.20
2011,05,04,08,00,6.30
2011,05,04,08,01,6.40
2011,05,04,08,02,6.50
2011,05,04,08,03,6.60
2011,05,04,08,04,6.70
2011,05,04,08,05,6.80
2011,05,04,08,06,6.90
2011,05,04,08,07,7.00
2011,05,04,08,08,7.00
2011,05,04,08,09,7.10
2011,05,04,08,10,7.20
2011,05,04,08,11,7.20
2011,05,04,08,12,7.20
2011,05,04,08,13,7.30
2011,05,04,08,14,7.40
2011,05,04,08,15,7.50
2011,05,04,08,16,7.60
2011,05,04,08,17,7.70
2011,05,04,08,18,7.70
2011,05,04,08,19,7.80
2011,05,04,08,20,7.90
2011,05,04,08,21,7.90
2011,05,04,08,22,7.90
2011,05,04,08,23,7.90
2011,05,04,08,24,7.90
2011,05,04,08,25,7.90
2011,05,04,08,26,7.90
2011,05,04,08,27,7.90
2011,05,04,08,28,7.90
2011,05,04,08,29,8.00
2011,05,04,08,30,8.00
2011,05,04,08,31,8.10
2011,05,04,08,32,8.10
2011,05,04,08,33,8.10
2011,05,04,08,34,8.20
2011,05,04,08,35,8.30
2011,05,04,08,36,8.40
2011,05,04,08,37,8.50
2011,05,04,08,38,8.60
2011,05,04,08,39,8.70
2011,05,04,08,40,8.80
2011,05,04,08,41,8.80
2011,05,04,08,42,8.80
2011,05,04,08,43,8.80
2011,05,04,08,44,8.80
2011,05,04,08,45,8.80
2011,05,04,08,46,8.80
2011,05,04,08,47,8.80
2011,05,04,08,48,8.80
2011,05,04,08,49,8.90
2011,05,04,08,50,8.90
2011,05,04,08,51,9.00
2011,05,04,08,52,9.00
2011,05,04,08,53,9.00
2011,05,04,08,54,9.10
2011,05,04,08,55,9.10
2011,05,04,08,56,9.10
2011,05,04,08,57,9.10
2011,05,04,08,58,9.10
2011,05,04,08,59,9.20
2011,05,04,09,00,9.30
2011,05,04,09,01,9.40
2011,05,04,09,02,9.40
2011,05,04,09,03,9.40
2011,05,04,09,04,9.40
2011,05,04,09,05,9.30
2011,05,04,09,06,9.30
2011,05,04,09,07,9.20
2011,05,04,09,08,9.20
2011,05,04,09,09,9.20
2011,05,04,09,10,9.20
2011,05,04,09,11,9.20
2011,05,04,09,12,9.30
2011,05,04,09,13,9.30
2011,05,04,09,14,9.40
2011,05,04,09,15,9.50
2011,05,04,09,16,9.60
2011,05,04,09,17,9.60
2011,05,04,09,18,9.60
2011,05,04,09,19,9.70
2011,05,04,09,20,9.80
2011,05,04,09,21,9.80
2011,05,04,09,22,9.90
2011,05,04,09,23,10.00
2011,05,04,09,24,9.90
2011,05,04,09,25,9.90
2011,05,04,09,26,9.90
2011,05,04,09,27,9.80
2011,05,04,09,28,9.80
2011,05,04,09,29,9.70
2011,05,04,09,30,9.80
2011,05,04,09,31,9.80
2011,05,04,09,32,9.90
2011,05,04,09,33,10.10
2011,05,04,09,34,10.20
2011,05,04,09,35,10.30
2011,05,04,09,36,10.40
2011,05,04,09,37,10.40
2011,05,04,09,38,10.40
2011,05,04,09,39,10.50
2011,05,04,09,40,10.60
2011,05,04,09,41,10.70
2011,05,04,09,42,10.70
2011,05,04,09,43,10.70
2011,05,04,09,44,10.80
2011,05,04,09,45,10.80
2011,05,04,09,46,10.90
2011,05,04,09,47,10.90
2011,05,04,09,48,11.00
2011,05,04,09,49,11.10
2011,05,04,09,50,11.20
2011,05,04,09,51,11.30
2011,05,04,09,52,11.30
2011,05,04,09,53,11.30
2011,05,04,09,54,11.30
2011,05,04,09,55,11.20
2011,05,04,09,56,11.20
2011,05,04,09,57,11.20
2011,05,04,09,58,11.30
2011,05,04,09,59,11.30
2011,05,04,10,00,11.20
2011,05,04,10,01,11.20
2011,05,04,10,02,11.20
2011,05,04,10,03,11.30
2011,05,04,10,04,11.20
2011,05,04,10,05,11.20
2011,05,04,10,06,11.20
2011,05,04,10,07,11.30
2011,05,04,10,08,11.30
2011,05,04,10,09,11.30
2011,05,04,10,10,11.40
2011,05,04,10,11,11.40
2011,05,04,10,12,11.50
2011,05,04,10,13,11.60
2011,05,04,10,14,11.70
2011,05,04,10,15,11.80
2011,05,04,10,16,11.90
2011,05,04,10,17,11.90
2011,05,04,10,18,11.90
2011,05,04,10,19,11.90
2011,05,04,10,20,11.90
2011,05,04,10,21,11.80
2011,05,04,10,22,11.70
2011,05,04,10,23,11.70
2011,05,04,10,24,11.60
2011,05,04,10,25,11.70
2011,05,04,10,26,11.70
2011,05,04,10,27,11.70
2011,05,04,10,28,11.80
2011,05,04,10,29,11.80
2011,05,04,10,30,12.00
2011,05,04,10,31,12.00
2011,05,04,10,32,11.90
2011,05,04,10,33,11.80
2011,05,04,10,34,11.80
2011,05,04,10,35,11.70
2011,05,04,10,36,11.60
2011,05,04,10,37,11.60
2011,05,04,10,38,11.60
2011,05,04,10,39,11.70
2011,05,04,10,40,11.70
2011,05,04,10,41,11.80
2011,05,04,10,42,12.00
2011,05,04,10,43,12.10
2011,05,04,10,44,12.10
2011,05,04,10,45,12.10
2011,05,04,10,46,12.20
2011,05,04,10,47,12.30
2011,05,04,10,48,12.30
2011,05,04,10,49,12.30
2011,05,04,10,50,12.30
2011,05,04,10,51,12.30
2011,05,04,10,52,12.20
2011,05,04,10,53,12.30
2011,05,04,10,54,12.40
2011,05,04,10,55,12.50
2011,05,04,10,56,12.60
2011,05,04,10,57,12.70
2011,05,04,10,58,12.90
2011,05,04,10,59,12.90
2011,05,04,11,00,12.80
2011,05,04,11,01,12.80
2011,05,04,11,02,12.70
2011,05,04,11,03,12.60
2011,05,04,11,04,12.40
2011,05,04,11,05,12.30
2011,05,04,11,06,12.20
2011,05,04,11,07,12.20
2011,05,04,11,08,12.20
2011,05,04,11,09,12.20
2011,05,04,11,10,12.10
2011,05,04,11,11,12.10
2011,05,04,11,12,12.20
2011,05,04,11,13,12.40
2011,05,04,11,14,12.50
2011,05,04,11,15,12.50
2011,05,04,11,16,12.50
2011,05,04,11,17,12.40
2011,05,04,11,18,12.30
2011,05,04,11,19,12.20
2011,05,04,11,20,12.20
2011,05,04,11,21,12.20
2011,05,04,11,22,12.30
2011,05,04,11,23,12.30
2011,05,04,11,24,12.30
2011,05,04,11,25,12.30
2011,05,04,11,26,12.30
2011,05,04,11,27,12.30
2011,05,04,11,28,12.30
2011,05,04,11,29,12.20
2011,05,04,11,30,12.30
2011,05,04,11,31,12.30
2011,05,04,11,32,12.30
2011,05,04,11,33,12.40
2011,05,04,11,34,12.50
2011,05,04,11,35,12.60
2011,05,04,11,36,12.60
2011,05,04,11,37,12.70
2011,05,04,11,38,12.70
2011,05,04,11,39,12.80
2011,05,04,11,40,12.90
2011,05,04,11,41,13.00
2011,05,04,11,42,13.10
2011,05,04,11,43,13.10
2011,05,04,11,44,13.00
2011,05,04,11,45,13.00
2011,05,04,11,46,13.10
2011,05,04,11,47,13.10
2011,05,04,11,48,12.90
2011,05,04,11,49,12.80
2011,05,04,11,50,12.70
2011,05,04,11,51,12.70
2011,05,04,11,52,12.70
2011,05,04,11,53,12.70
2011,05,04,11,54,12.70
2011,05,04,11,55,12.70
2011,05,04,11,56,12.70
2011,05,04,11,57,12.60
2011,05,04,11,58,12.60
2011,05,04,11,59,12.80
2011,05,04,12,00,12.90
2011,05,04,12,01,13.00
2011,05,04,12,02,13.10
2011,05,04,12,03,13.20
2011,05,04,12,04,13.30
2011,05,04,12,05,13.30
2011,05,04,12,06,13.30
2011,05,04,12,07,13.30
2011,05,04,12,08,13.40
2011,05,04,12,09,13.50
2011,05,04,12,10,13.60
2011,05,04,12,11,13.60
2011,05,04,12,12,13.60
2011,05,04,12,13,13.60
2011,05,04,12,14,13.60
2011,05,04,12,15,13.60
2011,05,04,12,16,13.60
2011,05,04,12,17,13.50
2011,05,04,12,18,13.40
2011,05,04,12,19,13.40
2011,05,04,12,20,13.40
2011,05,04,12,21,13.40
2011,05,04,12,22,13.30
2011,05,04,12,23,13.20
2011,05,04,12,24,13.10
2011,05,04,12,25,13.00
2011,05,04,12,26,13.00
2011,05,04,12,27,13.00
2011,05,04,12,28,13.10
2011,05,04,12,29,13.10
2011,05,04,12,30,13.10
2011,05,04,12,31,13.10
2011,05,04,12,32,13.10
2011,05,04,12,33,13.00
2011,05,04,12,34,12.90
2011,05,04,12,35,12.90
2011,05,04,12,36,13.00
2011,05,04,12,37,13.10
2011,05,04,12,38,13.10
2011,05,04,12,39,13.10
2011,05,04,12,40,13.20
2011,05,04,12,41,13.40
2011,05,04,12,42,13.50
2011,05,04,12,43,13.70
2011,05,04,12,44,13.70
2011,05,04,12,45,13.80
2011,05,04,12,46,13.80
2011,05,04,12,47,13.90
2011,05,04,12,48,14.00
2011,05,04,12,49,14.00
2011,05,04,12,50,13.90
2011,05,04,12,51,13.90
2011,05,04,12,52,13.90
2011,05,04,12,53,13.90
2011,05,04,12,54,13.90
2011,05,04,12,55,13.90
2011,05,04,12,56,13.80
2011,05,04,12,57,13.80
2011,05,04,12,58,13.80
2011,05,04,12,59,13.90
2011,05,04,13,00,14.00
2011,05,04,13,01,14.00
2011,05,04,13,02,14.00
2011,05,04,13,03,13.90
2011,05,04,13,04,13.90
2011,05,04,13,05,14.00
2011,05,04,13,06,14.10
2011,05,04,13,07,14.10
2011,05,04,13,08,14.10
2011,05,04,13,09,14.20
2011,05,04,13,10,14.20
2011,05,04,13,11,14.20
2011,05,04,13,12,14.10
2011,05,04,13,13,13.90
2011,05,04,13,14,13.70
2011,05,04,13,15,13.70
2011,05,04,13,16,13.60
2011,05,04,13,17,13.70
2011,05,04,13,18,13.70
2011,05,04,13,19,13.70
2011,05,04,13,20,13.70
2011,05,04,13,21,13.70
2011,05,04,13,22,13.70
2011,05,04,13,23,13.60
2011,05,04,13,24,13.60
2011,05,04,13,25,13.60
2011,05,04,13,26,13.70
2011,05,04,13,27,13.90
2011,05,04,13,28,14.00
2011,05,04,13,29,14.00
2011,05,04,13,30,14.00
2011,05,04,13,31,14.10
2011,05,04,13,32,14.20
2011,05,04,13,33,14.20
2011,05,04,13,34,14.10
2011,05,04,13,35,14.00
2011,05,04,13,36,13.90
2011,05,04,13,37,13.80
2011,05,04,13,38,13.70
2011,05,04,13,39,13.80
2011,05,04,13,40,13.80
2011,05,04,13,41,13.80
2011,05,04,13,42,13.90
2011,05,04,13,43,14.00
2011,05,04,13,44,14.10
2011,05,04,13,45,14.10
2011,05,04,13,46,14.00
2011,05,04,13,47,14.00
2011,05,04,13,48,14.10
2011,05,04,13,49,14.20
2011,05,04,13,50,14.40
2011,05,04,13,51,14.60
2011,05,04,13,52,14.70
2011,05,04,13,53,14.80
2011,05,04,13,54,14.80
2011,05,04,13,55,14.90
2011,05,04,13,56,15.00
2011,05,04,13,57,15.00
2011,05,04,13,58,15.00
2011,05,04,13,59,14.80
2011,05,04,14,00,14.70
2011,05,04,14,01,14.60
2011,05,04,14,02,14.50
2011,05,04,14,03,14.40
2011,05,04,14,04,14.30
2011,05,04,14,05,14.20
2011,05,04,14,06,14.20
2011,05,04,14,07,14.20
2011,05,04,14,08,14.30
2011,05,04,14,09,14.50
2011,05,04,14,10,14.60
2011,05,04,14,11,14.80
2011,05,04,14,12,14.90
2011,05,04,14,13,15.00
2011,05,04,14,14,15.00
2011,05,04,14,15,14.90
2011,05,04,14,16,14.80
2011,05,04,14,17,14.80
2011,05,04,14,18,14.80
2011,05,04,14,19,14.80
2011,05,04,14,20,14.80
2011,05,04,14,21,14.80
2011,05,04,14,22,14.80
2011,05,04,14,23,14.80
2011,05,04,14,24,14.90
2011,05,04,14,25,14.80
2011,05,04,14,26,14.80
2011,05,04,14,27,14.70
2011,05,04,14,28,14.60
2011,05,04,14,29,14.60
2011,05,04,14,30,14.60
2011,05,04,14,31,14.70
2011,05,04,14,32,14.70
2011,05,04,14,33,14.80
2011,05,04,14,34,14.80
2011,05,04,14,35,14.80
2011,05,04,14,36,14.80
2011,05,04,14,37,14.70
2011,05,04,14,38,14.70
2011,05,04,14,39,14.70
2011,05,04,14,40,14.70
2011,05,04,14,41,14.70
2011,05,04,14,42,14.80
2011,05,04,14,43,14.80
2011,05,04,14,44,15.00
2011,05,04,14,45,15.00
2011,05,04,14,46,15.00
2011,05,04,14,47,15.00
2011,05,04,14,48,15.00
2011,05,04,14,49,15.10
2011,05,04,14,50,15.30
2011,05,04,14,51,15.40
2011,05,04,14,52,15.40
2011,05,04,14,53,15.40
2011,05,04,14,54,15.30
2011,05,04,14,55,15.10
2011,05,04,14,56,15.00
2011,05,04,14,57,15.00
2011,05,04,14,58,15.10
2011,05,04,14,59,15.20
2011,05,04,15,00,15.40
2011,05,04,15,01,15.40
2011,05,04,15,02,15.40
2011,05,04,15,03,15.40
2011,05,04,15,04,15.40
2011,05,04,15,05,15.40
2011,05,04,15,06,15.30
2011,05,04,15,07,15.30
2011,05,04,15,08,15.30
2011,05,04,15,09,15.20
2011,05,04,15,10,15.20
2011,05,04,15,11,15.20
2011,05,04,15,12,15.10
2011,05,04,15,13,15.00
2011,05,04,15,14,15.00
2011,05,04,15,15,15.00
2011,05,04,15,16,14.90
2011,05,04,15,17,14.80
2011,05,04,15,18,14.80
2011,05,04,15,19,14.80
2011,05,04,15,20,14.70
2011,05,04,15,21,14.80
2011,05,04,15,22,14.80
2011,05,04,15,23,14.80
2011,05,04,15,24,14.70
2011,05,04,15,25,14.70
2011,05,04,15,26,14.70
2011,05,04,15,27,14.80
2011,05,04,15,28,14.90
2011,05,04,15,29,15.00
2011,05,04,15,30,15.10
2011,05,04,15,31,15.20
2011,05,04,15,32,15.10
2011,05,04,15,33,15.00
2011,05,04,15,34,15.00
2011,05,04,15,35,15.00
2011,05,04,15,36,15.00
2011,05,04,15,37,15.00
2011,05,04,15,38,15.00
2011,05,04,15,39,15.00
2011,05,04,15,40,14.90
2011,05,04,15,41,14.80
2011,05,04,15,42,14.80
2011,05,04,15,43,14.80
2011,05,04,15,44,14.80
2011,05,04,15,45,14.90
2011,05,04,15,46,15.00
2011,05,04,15,47,15.00
2011,05,04,15,48,15.00
2011,05,04,15,49,15.00
2011,05,04,15,50,15.00
2011,05,04,15,51,15.00
2011,05,04,15,52,15.00
2011,05,04,15,53,14.90
2011,05,04,15,54,15.00
2011,05,04,15,55,15.00
2011,05,04,15,56,15.00
2011,05,04,15,57,15.00
2011,05,04,15,58,15.00
2011,05,04,15,59,14.90
2011,05,04,16,00,14.80
2011,05,04,16,01,14.80
2011,05,04,16,02,14.70
2011,05,04,16,03,14.70
2011,05,04,16,04,14.70
2011,05,04,16,05,14.70
2011,05,04,16,06,14.70
2011,05,04,16,07,14.70
2011,05,04,16,08,14.70
2011,05,04,16,09,14.70
2011,05,04,16,10,14.70
2011,05,04,16,11,14.70
2011,05,04,16,12,14.60
2011,05,04,16,13,14.70
2011,05,04,16,14,14.80
2011,05,04,16,15,14.80
2011,05,04,16,16,14.90
2011,05,04,16,17,15.00
2011,05,04,16,18,14.90
2011,05,04,16,19,14.80
2011,05,04,16,20,14.80
2011,05,04,16,21,14.80
2011,05,04,16,22,14.70
2011,05,04,16,23,14.70
2011,05,04,16,24,14.70
2011,05,04,16,25,14.70
2011,05,04,16,26,14.80
2011,05,04,16,27,14.90
2011,05,04,16,28,15.00
2011,05,04,16,29,15.00
2011,05,04,16,30,14.90
2011,05,04,16,31,15.00
2011,05,04,16,32,15.00
2011,05,04,16,33,15.00
2011,05,04,16,34,15.00
2011,05,04,16,35,15.00
2011,05,04,16,36,14.90
2011,05,04,16,37,14.80
2011,05,04,16,38,14.80
2011,05,04,16,39,14.90
2011,05,04,16,40,15.00
2011,05,04,16,41,15.00
2011,05,04,16,42,15.00
2011,05,04,16,43,15.00
2011,05,04,16,44,14.90
2011,05,04,16,45,14.80
2011,05,04,16,46,14.70
2011,05,04,16,47,14.70
2011,05,04,16,48,14.80
2011,05,04,16,49,14.90
2011,05,04,16,50,14.80
2011,05,04,16,51,14.80
2011,05,04,16,52,14.90
2011,05,04,16,53,15.00
2011,05,04,16,54,15.00
2011,05,04,16,55,15.00
2011,05,04,16,56,15.00
2011,05,04,16,57,15.00
2011,05,04,16,58,15.00
2011,05,04,16,59,15.00
2011,05,04,17,00,15.10
2011,05,04,17,01,15.00
2011,05,04,17,02,15.00
2011,05,04,17,03,15.00
2011,05,04,17,04,14.90
2011,05,04,17,05,14.70
2011,05,04,17,06,14.70
2011,05,04,17,07,14.60
2011,05,04,17,08,14.60
2011,05,04,17,09,14.60
2011,05,04,17,10,14.60
2011,05,04,17,11,14.60
2011,05,04,17,12,14.60
2011,05,04,17,13,14.60
2011,05,04,17,14,14.70
2011,05,04,17,15,14.60
2011,05,04,17,16,14.50
2011,05,04,17,17,14.50
2011,05,04,17,18,14.50
2011,05,04,17,19,14.50
2011,05,04,17,20,14.50
2011,05,04,17,21,14.50
2011,05,04,17,22,14.30
2011,05,04,17,23,14.20
2011,05,04,17,24,14.10
2011,05,04,17,25,14.10
2011,05,04,17,26,14.10
2011,05,04,17,27,14.00
2011,05,04,17,28,14.00
2011,05,04,17,29,14.00
2011,05,04,17,30,14.20
2011,05,04,17,31,14.30
2011,05,04,17,32,14.30
2011,05,04,17,33,14.20
2011,05,04,17,34,14.10
2011,05,04,17,35,14.00
2011,05,04,17,36,13.90
2011,05,04,17,37,13.90
2011,05,04,17,38,14.00
2011,05,04,17,39,14.00
2011,05,04,17,40,14.00
2011,05,04,17,41,13.90
2011,05,04,17,42,13.90
2011,05,04,17,43,13.90
2011,05,04,17,44,13.90